• MPC Preparation (Info)

  • MPEC 2019-V78 : 2019 VU2

    The following Minor Planet Electronic Circular may be linked-to from your own Web pages, but must not otherwise be redistributed electronically.

    A form allowing access to any MPEC is at the bottom of this page.


    Read MPEC 2019-V77 Read MPEC 2019-V79


    M.P.E.C. 2019-V78                              Issued 2019 November 6, 21:19 UT
    
         The Minor Planet Electronic Circulars contain information on unusual
             minor planets and routine data on comets.  They are published
        on behalf of Division F of the International Astronomical Union by the
              Minor Planet Center, Smithsonian Astrophysical Observatory,
                              Cambridge, MA 02138, U.S.A.
    
                 Prepared using the Tamkin Foundation Computer Network
    
                                  MPC@CFA.HARVARD.EDU
                URL https://www.minorplanetcenter.net/    ISSN 1523-6714
    
                                    2019 VU2                                 
    
    
    Observations:
         K19V02U  C2019 10 23.38699003 00 33.141+13 16 01.56               VEV078F51
         K19V02U  C2019 10 23.40784103 00 23.999+13 17 38.58         20.9 GVEV078F51
         K19V02U  C2019 10 23.42956403 00 14.374+13 19 19.59         21.0 GVEV078F51
         K19V02U  C2019 10 29.50310102 09 55.582+21 55 20.37         20.4 GVEV078F51
         K19V02U* C2019 11 04.17119 01 06 38.79 +30 02 16.0          20.8 GVEV078G96
         K19V02U  C2019 11 04.17637 01 06 34.77 +30 02 39.7          21.2 GVEV078G96
         K19V02U  C2019 11 04.18155 01 06 30.66 +30 03 04.9          21.1 GVEV078G96
         K19V02U  C2019 11 04.18675 01 06 26.58 +30 03 29.7          20.6 GVEV078G96
         K19V02U  C2019 11 04.25027901 05 36.19 +30 08 19.8          20.7 GVEV078H01
         K19V02U  C2019 11 04.25416001 05 33.14 +30 08 37.3          20.8 GVEV078H01
         K19V02U  C2019 11 04.25597 01 05 32.24 +30 08 49.2          20.6 GVEV078G96
         K19V02U  C2019 11 04.26104 01 05 28.17 +30 09 12.9          20.7 GVEV078G96
         K19V02U  C2019 11 04.27189801 05 19.22 +30 09 57.1          20.7 GVEV078H01
         K19V02U  C2019 11 04.27509501 05 16.70 +30 10 11.5          21.7 GVEV078H01
         K19V02U  C2019 11 05.08964 00 55 24.72 +31 10 30.3          21.9 GVEV078I52
         K19V02U  C2019 11 05.09131 00 55 23.43 +31 10 37.6          20.6 GVEV078I52
         K19V02U  C2019 11 05.09297 00 55 22.17 +31 10 45.5          20.5 GVEV078I52
         K19V02U  C2019 11 05.26870700 53 09.913+31 23 58.21         21.4 GVEV078F51
         K19V02U  C2019 11 05.27752200 53 02.836+31 24 37.53         21.2 GVEV078F51
         K19V02U  C2019 11 05.28645900 52 55.638+31 25 17.66         21.0 GVEV078F51
         K19V02U  C2019 11 05.29546100 52 48.576+31 25 56.60         21.2 GVEV078F51
         K19V02U KC2019 11 06.12962900 42 23.67 +32 22 35.3          21.6 VuEV078H21
         K19V02U KC2019 11 06.13835700 42 16.72 +32 23 10.1          21.6 VuEV078H21
         K19V02U  C2019 11 06.13967 00 42 19.03 +32 23 25.7          21.4 GVEV078G96
         K19V02U  C2019 11 06.14305 00 42 16.33 +32 23 39.3          21.1 GVEV078G96
         K19V02U  C2019 11 06.14380 00 42 15.76 +32 23 42.3          20.7 GVEV078G96
         K19V02U KC2019 11 06.14696800 42 09.82 +32 23 44.6          21.2 VuEV078H21
    
    Observer details:
    F51 Pan-STARRS 1, Haleakala.  Observers J. Bulger, K. Chambers, T. Lowe, E. 
       Magnier, A. Schultz, M. Willman.  Measurers S. Chastel, M. Huber, Y. 
       Ramanjooloo, R. Wainscoat, R. Weryk.  1.8-m Ritchey-Chretien + CCD.
    G96 Mt. Lemmon Survey.  Observer E. J. Christensen.  Measurers E. J. 
       Christensen, G. A. Farneth, D. C. Fuls, A. R. Gibbs, A. D. Grauer, H. 
       Groeller, R. A. Kowalski, S. M. Larson, G. J. Leonard, T. A. Pruyne, D. 
       Rankin, R. L. Seaman, F. C. Shelly, K. W. Wierzchos.  1.5-m reflector + 10K 
       CCD.
    H01 Magdalena Ridge Observatory, Socorro.  Observers W. H. Ryan, E. V. Ryan.  
        Measurer W. H. Ryan.  2.4-m f/8.9 Ritchey-Chretien + CCD.
    H21 Astronomical Research Observatory, Westfield.  Observer R. Holmes.  
        Measurers S. Foglia, L. Buzzi, T. Linder, R. Holmes.  0.81-m f/4.0 
       astrograph + CCD.
    I52 Steward Observatory, Mt. Lemmon Station.  Observer D. Rankin.  Measurers E. 
       J. Christensen, G. A. Farneth, D. C. Fuls, A. R. Gibbs, A. D. Grauer, H. 
       Groeller, R. A. Kowalski, S. M. Larson, G. J. Leonard, T. A. Pruyne, D. 
       Rankin, R. L. Seaman, F. C. Shelly, K. W. Wierzchos.  1.0-m reflector + CCD.
    
    Orbital elements:
    2019 VU2                                                 Earth MOID = 0.0634 AU
    Epoch 2019 Apr. 27.0 TT = JDT 2458600.5                 Bell
    M  22.90069              (2000.0)            P               Q
    n   1.08413464     Peri.  150.90045     -0.99492673     +0.05060208
    a   0.9384560      Node    32.35656     -0.08856348     -0.85053494
    e   0.1686875      Incl.    9.35005     +0.04772110     -0.52347851
    P   0.91           H   25.8           G   0.15           U   7
    Residuals in seconds of arc
    191023 F51  0.1-  0.1+    191104 H01  0.0   0.0     191105 F51  0.2-  0.1-
    191023 F51  0.2+  0.1-    191104 G96  0.3+  0.4-    191105 F51  0.9-  0.4+
    191023 F51  0.1-  0.0     191104 G96  0.8-  0.4+    191105 F51  1.0+  0.3-
    191029 F51  0.2+  0.1-    191104 H01  0.0   0.0     191106 H21  0.0   0.1+
    191104 G96  0.3-  0.3+    191104 H01  0.2-  0.1+    191106 H21  0.2+  0.1-
    191104 G96  0.1+  0.6-    191105 I52  0.5-  0.2+    191106 G96  0.1+  0.4+
    191104 G96  0.6-  0.1+    191105 I52  0.4-  0.2-    191106 G96  0.1+  0.0
    191104 G96  0.7-  0.4+    191105 I52  0.1+  0.1+    191106 G96  0.5+  0.1-
    191104 H01  0.0   0.1+    191105 F51  0.4+  0.1-    191106 H21  0.0   0.1+
    
    Ephemeris:
    2019 VU2                 a,e,i = 0.94, 0.17, 9                   q = 0.7802
    Date    TT    R. A. (2000) Decl.     Delta      r    Elong.  Phase     V
    2019 10 07    04 00 49.5 -00 24 10   0.1292  1.0899   131.6    43.3    23.2
    ...
    2019 10 22    03 09 16.4 +11 33 32   0.08375 1.0741   159.1    19.3    21.5
    ...
    2019 10 30    02 05 01.4 +22 40 05   0.06967 1.0620   170.6     8.8    20.7
    ...
    2019 11 05    00 56 25.4 +31 04 19   0.06717 1.0515   152.0    26.3    21.2
    2019 11 06    00 44 00.3 +32 14 10   0.06747 1.0496   148.5    29.5    21.3
    2019 11 07    00 31 31.2 +33 18 10   0.06796 1.0476   145.1    32.8    21.4
    ...
    2019 11 13    23 19 56.8 +37 33 50   0.07433 1.0353   126.2    50.5    22.1
    ...
    2019 11 21    22 06 52.1 +39 00 10   0.08881 1.0171   106.7    68.5    23.0
    ...
    2019 12 06    20 51 09.2 +37 45 43   0.1208  0.9780    83.0    90.0    24.3
    
    A. U. Tomatic                (C) Copyright 2019 MPC           M.P.E.C. 2019-V78
    


    Read MPEC 2019-V77 Read MPEC 2019-V79


    MPEC number:

    Enter an MPEC number in one of the following forms:

    • 1997-B01 (the full form)
    • J97B01 (the packed version of the full form)
    • B01 (the abbreviated form)